Weather in Pirovy-Gorodishchi

Russia / Vladimir Oblast     56°13′39″N   42°14′59″E
temp.,
°C
wind,
m/s
gust,
m/s
humid.,
%
clouds,
%
prec.,
mm/h
press.,
hPa
HPBL,
m
25 february, thu
thu2500:00−17s51095100 0.4 1030373
03:00−17ssw51096100 0.8 1027422
06:00−16s61295100 1.8 1023444
09:00−14s61295100 3.5 1018465
12:00−10ssw61094100 3.0 1014450
15:00−8s3695100 4.4 1012276
18:00−6s1197100 0.4 101177
21:00−4wnw1196100 0.6 101263
26 february, fri
fri2600:000w28100100 0.1 1011286
03:00+1w3898100 0.1 1011306
06:000ssw2299100 0.2 100849
09:00+1ssw36100100 0.8 1007144
12:00+1sw49100100 1.8 1003266
15:00+2sw512100100 2.8 1000329
18:00+2w615100100 2.3 997574
21:00+2w61589100 2.9 997706
27 february, sat
sat2700:00+1w7149598 0.1 995876
03:000w7139799 0.4 996820
06:000wnw71397100 0.3 995779
09:00−4nnw71394100 2.0 997575
12:00−7nnw6993100 0.3 998702
15:00−7nnw6989100 0.6 1002789
18:00−9n4992100 0.3 1004596
21:00−12n379599 0.3 1008209
28 february, sun
sun2800:00−13nnw379691 0.0 1009173
03:00−15nnw379658 0.0 1011143
06:00−17nnw37963 0.0 1013137
09:00−15nnw47933 0.0 1014294
12:00−11nnw478971 0.0 1016486
15:00−8nnw478985 0.1 1016630
18:00−10nnw3893100 0.1 1018370
21:00−12nnw3694100 0.1 1021124
1 march, mon
mon100:00−14nnw239621 0.0 102230
03:00−15nnw239511 0.0 102423
06:00−15nnw229758 0.0 102520
09:00−12wnw119675 0.0 102674
12:00−6w239098 0.0 1026337
15:00−3wsw368998 0.0 1024515
18:00−5sw4993100 0.0 1022227
21:00−3wsw51195100 0.1 1019442